Weather History for KGZH - November, 2013

Change the Weather History Date:

Monday, November 18, 2013

  Actual Average (KPRN) Record (KPRN)
Temperature  
Mean Temperature 70 °F -  
Max Temperature 84 °F 70 °F 85 °F (1985)
Min Temperature 53 °F 43 °F 21 °F (2014)
Cooling Degree Days 4    
Growing Degree Days 20 (Base 50)    
Moisture  
Dew Point 56 °F    
Average Humidity 64    
Maximum Humidity 94    
Minimum Humidity 20    
Precipitation  
Precipitation 0.05 in - - ()
Sea Level Pressure  
Sea Level Pressure 30.01 in    
Wind  
Wind Speed 5 mph (NNW)    
Max Wind Speed 13 mph    
Max Gust Speed 24 mph    
Visibility 8 miles    
Events Rain    
Averages and records for this station are not official NWS values.
T = Trace of Precipitation, MM = Missing Value Source: NWS Daily Summary

Daily Weather History Graph

Daily Weather History Graph

Search for Another Location

Airport or City:

Trip Planner

Search our weather history database for the weather conditions in past years. The results will help you decide how hot, cold, wet, or windy it might be!

Date:

Astronomy

Nov. 18, 2013 Rise Set
Actual Time 6:18 AM CST 4:47 PM CST
Civil Twilight 5:52 AM CST 5:13 PM CST
Nautical Twilight 5:23 AM CST 5:43 PM CST
Astronomical Twilight 4:54 AM CST 6:12 PM CST
Moon 5:50 PM CST (11/18) 7:06 AM CST (11/18)
Length of Visible Light 11h 21m
Length of Day
10h 29m
Full, 99% of the Moon is Illuminated
Nov 18
Full
Nov 25
Last Quarter
Dec 2
New
Dec 9
First Quarter
Dec 17
Full

Hourly Weather History & Observations

Time (CST) Temp. Dew Point Humidity Pressure Visibility Wind Dir Wind Speed Gust Speed Precip Events Conditions
12:53 AM 73.9 °F 71.1 °F 91% 29.98 in 9.0 mi WSW 5.8 mph - N/A   Overcast
1:07 AM 73.9 °F 71.1 °F 91% 29.98 in 9.0 mi SW 5.8 mph - N/A   Overcast
1:53 AM 73.9 °F 71.1 °F 91% 29.97 in 9.0 mi SW 5.8 mph - N/A   Overcast
2:33 AM 75.0 °F 71.1 °F 87% 29.97 in 10.0 mi WSW 4.6 mph - N/A   Overcast
2:53 AM 75.0 °F 71.1 °F 87% 29.95 in 8.0 mi Calm Calm - 0.00 in Rain Light Rain
3:53 AM 73.9 °F 71.1 °F 91% 29.96 in 5.0 mi West 5.8 mph - 0.00 in Rain Light Rain
4:11 AM 73.9 °F 71.1 °F 91% 29.96 in 4.0 mi Calm Calm - 0.02 in Rain Light Rain
4:53 AM 73.9 °F 71.1 °F 91% 29.95 in 5.0 mi Calm Calm - 0.02 in   Overcast
5:07 AM 73.9 °F 71.1 °F 91% 29.96 in 5.0 mi Calm Calm - N/A   Overcast
5:20 AM 73.9 °F 71.1 °F 91% 29.97 in 6.0 mi WSW 3.5 mph - N/A   Overcast
5:53 AM 73.9 °F 71.1 °F 91% 29.96 in 6.0 mi Calm Calm - N/A   Overcast
6:28 AM 73.9 °F 71.1 °F 91% 29.98 in 3.0 mi Calm Calm - 0.03 in Rain Light Rain
6:47 AM 73.4 °F 71.6 °F 94% 29.98 in 3.0 mi Calm Calm - 0.03 in Rain Light Rain
6:53 AM 73.9 °F 71.1 °F 91% 29.98 in 4.0 mi Calm Calm - 0.03 in   Overcast
7:03 AM 72.0 °F 68.0 °F 87% 30.00 in 5.0 mi North 12.7 mph 24.2 mph N/A   Overcast
7:21 AM 69.1 °F 63.0 °F 81% 30.02 in 10.0 mi North 9.2 mph 18.4 mph 0.00 in Rain Light Rain
7:53 AM 68.0 °F 59.0 °F 73% 30.03 in 10.0 mi North 9.2 mph - 0.00 in   Scattered Clouds
8:53 AM 71.1 °F 55.0 °F 57% 30.04 in 10.0 mi Variable 4.6 mph - N/A   Clear
9:53 AM 73.9 °F 50.0 °F 43% 30.06 in 10.0 mi NNE 9.2 mph - N/A   Clear
10:53 AM 78.1 °F 43.0 °F 29% 30.04 in 10.0 mi NNE 10.4 mph - N/A   Scattered Clouds
11:53 AM 81.0 °F 42.1 °F 25% 30.02 in 10.0 mi North 6.9 mph - N/A   Clear
12:53 PM 82.0 °F 43.0 °F 25% 29.99 in 10.0 mi North 4.6 mph - N/A   Clear
1:53 PM 84.0 °F 39.0 °F 20% 29.98 in 10.0 mi NNW 8.1 mph - N/A   Clear
2:53 PM 81.0 °F 43.0 °F 26% 29.99 in 10.0 mi NNW 10.4 mph - N/A   Clear
3:53 PM 75.9 °F 45.0 °F 33% 30.00 in 10.0 mi NNW 11.5 mph 18.4 mph N/A   Clear
4:53 PM 70.0 °F 41.0 °F 35% 30.03 in 10.0 mi NNW 6.9 mph - N/A   Clear
5:53 PM 64.9 °F 41.0 °F 42% 30.04 in 10.0 mi NNW 5.8 mph - N/A   Clear
6:53 PM 62.1 °F 39.0 °F 43% 30.06 in 10.0 mi North 5.8 mph - N/A   Clear
7:53 PM 61.0 °F 37.9 °F 42% 30.09 in 10.0 mi North 5.8 mph - N/A   Clear
8:53 PM 57.9 °F 37.0 °F 46% 30.10 in 10.0 mi North 5.8 mph - N/A   Clear
9:53 PM 57.9 °F 35.1 °F 42% 30.09 in 10.0 mi North 9.2 mph - N/A   Clear
10:53 PM 55.9 °F 35.1 °F 45% 30.09 in 10.0 mi North 6.9 mph - N/A   Clear
11:53 PM 53.1 °F 36.0 °F 52% 30.09 in 10.0 mi NNW 6.9 mph - N/A   Clear